Location: *
(46.3083°N, 3.2900°E)
Time: 20:32:09
(UTC+00:00)

Daily predictions for brighter satellites

Satellite Brightness Start Highest point End
(mag) Time Altitude Azimuth Time Altitude Azimuth Time Altitude Azimuth
Unknown 4.2 19:11:36 10° WNW 19:15:39 52° SW 19:19:40 10° SE
FREGAT/IRIS 3.1 19:13:14 10° S 19:16:00 57° W 19:18:47 10° NNW
Unknown 4.3 19:13:19 10° WNW 19:17:21 50° SW 19:21:22 10° SE
ARGOS 3.5 19:12:26 10° SE 19:17:32 47° ENE 19:22:39 10° N
Unknown 4.5 19:15:12 10° WNW 19:19:09 45° SW 19:23:07 10° SSE
Cosmos 1602 4.1 19:16:29 10° SSE 19:20:07 43° E 19:23:46 10° NNE
Unknown 4.4 19:16:36 10° WNW 19:20:36 48° SW 19:24:35 10° SE
Resurs 1-3 4.2 19:17:09 10° SE 19:21:13 39° ENE 19:25:18 10° N
Unknown 4.4 19:18:18 10° WNW 19:22:17 46° SW 19:26:16 10° SE
SL-08 RB Rocket 4.4 19:19:48 10° SE 19:23:56 36° ENE 19:28:10 10° N
Unknown 4.5 19:21:40 10° WNW 19:25:38 44° SW 19:29:34 10° SSE
Cosmos 1777 Rocket 4.1 19:23:05 10° SSW 19:28:21 87° WNW 19:33:41 10° NNE
SJ-6B 2.9 19:25:05 10° SSE 19:29:02 86° WSW 19:33:08 10° NNW
CZ-2C R/B 3.7 19:25:02 10° SE 19:29:15 33° ENE 19:33:31 10° N
Aureole 2 Rocket 2.1 19:27:39 10° N 19:30:14 44° ENE 19:32:40 11° SE
Abrixas rocket 2.0 19:28:24 10° WSW 19:31:29 86° SSE 19:34:35 10° ENE
ADEOS Rocket 3.4 19:28:48 10° NNE 19:34:32 43° E 19:40:51 10° S
CZ-2C R/B 4.2 19:31:05 10° N 19:35:46 70° WNW 19:40:21 10° SSW
SJ 16-02 3.1 19:35:35 12° ESE 19:37:18 14° E 19:39:37 10° ENE
Cosmos 923 Rocket 4.1 19:34:28 10° NNW 19:39:49 67° ENE 19:45:05 10° SSE
Cosmos 1536 4.4 19:38:49 13° ESE 19:40:48 17° E 19:43:31 10° NE
Meteor 2-4 Rocket 3.9 19:35:46 10° N 19:40:58 48° ENE 19:46:08 10° SSE
Cosmos 1898 Rocket 4.4 19:38:43 10° SSE 19:43:05 27° E 19:47:26 10° NE
TSX-5 4.0 19:41:52 10° NNW 19:45:13 48° ENE 19:48:19 15° SE
H-2A R/B 1.9 19:42:11 10° SSE 19:47:13 86° ENE 19:52:11 10° NNW
Cosmos 44 4.5 19:44:19 10° NW 19:48:21 34° WSW 19:52:15 10° S
Cosmos 1680 Rocket 3.6 19:45:49 10° NNW 19:51:03 64° ENE 19:55:36 13° SSE
Resurs 01 Rocket 1.6 19:50:05 10° SSE 19:54:25 66° ENE 19:58:48 10° N
ERS-1 Rocket 4.4 19:58:39 15° E 20:01:15 23° ENE 20:05:07 10° NNE
USA 267 4.0 19:55:48 10° NE 20:02:10 57° NNW 20:08:31 10° WSW
Cosmos 1378 Rocket 3.9 20:02:27 10° N 20:06:44 47° ENE 20:09:24 21° SE
SL-24 R/B 4.2 20:02:53 14° SSE 20:06:49 68° ENE 20:11:10 10° N
Cosmos 1733 Rocket 2.9 20:04:26 10° S 20:08:44 86° E 20:13:05 10° N
Cosmos 1386 Rocket 4.5 20:05:43 10° N 20:11:50 70° E 20:17:16 14° SSE
Cosmos 1656 3.9 20:07:02 10° NNW 20:12:39 59° ENE 20:16:14 22° SE
MetOp-B 4.3 20:09:00 19° SE 20:12:45 55° ENE 20:17:58 10° N
Cosmos 1674 Rocket 3.4 20:08:51 10° N 20:13:14 78° E 20:16:27 18° SSE
Cosmos 1515 3.6 20:10:11 10° N 20:14:00 86° E 20:16:42 19° S
Cosmos 1833 Rocket 3.4 20:11:11 15° SSE 20:15:02 31° ESE 20:19:55 10° NE
ASTEX 1 3.4 20:10:49 10° NNE 20:15:43 58° E 20:19:47 15° S
Cosmos 2098 Rocket 3.8 20:11:24 10° N 20:15:52 47° E 20:19:11 22° SE
Meteor 1-11 Rocket 3.9 20:10:49 10° S 20:16:36 59° E 20:22:29 10° NNE
Cosmos 2082 Rocket 3.2 20:16:32 22° ESE 20:17:28 23° E 20:21:48 10° NE
Cosmos 2278 4.5 20:15:39 10° NNW 20:20:56 38° NE 20:23:50 23° ESE
BREEZE-M DEB (TANK) 2.1 20:18:51 10° WNW 20:21:12 71° SSW 20:23:22 27° ESE
Terra 3.5 20:22:15 16° E 20:23:42 19° ENE 20:26:58 10° NNE
Cosmos 158 Rocket 4.1 20:21:55 10° NNW 20:27:12 62° ENE 20:30:00 28° SE
Cosmos 1553 Rocket 4.3 20:21:06 10° SSW 20:27:20 71° W 20:33:43 10° N
SL-16 R/B 4.4 20:24:41 10° N 20:27:30 14° NE 20:30:17 10° ENE
Cosmos 1697 Rocket 3.1 20:22:40 10° NNW 20:28:12 49° ENE 20:30:58 27° ESE
Cosmos 1937 Rocket 3.7 20:23:46 12° S 20:28:32 48° ESE 20:33:39 10° NNE
Spot 2 Rocket 3.4 20:25:07 21° SSE 20:28:36 83° ENE 20:33:43 10° NNW
Cosmos 990 Rocket 4.0 20:23:39 10° S 20:28:46 60° ESE 20:33:54 10° NNE
Shenzhou-11 Module 2.8 20:28:36 10° WSW 20:30:38 32° SSW 20:30:38 32° SSW
Cosmos 1666 3.7 20:31:54 28° E 20:31:54 28° E 20:35:01 10° NNE
Meteor 1-5 Rocket 4.2 20:26:14 10° S 20:32:00 84° E 20:37:36 10° NNE
Cosmos 1975 Rocket 3.8 20:30:27 10° N 20:34:36 37° ENE 20:35:36 33° ESE
USA 234 4.1 20:32:35 17° SSE 20:37:15 41° SW 20:43:25 10° WNW
CZ-2C R/B 2.8 20:32:30 10° NNE 20:37:40 52° E 20:40:29 26° SSE
DMSP B5D2-2 4.1 20:36:23 10° NNE 20:41:40 87° WNW 20:46:56 10° SSW
SPOT 1/Viking Rocket 3.9 20:40:17 33° ESE 20:42:17 50° ENE 20:47:20 10° N
Cosmos 44 Rocket 4.1 20:41:18 10° NW 20:45:47 41° WSW 20:48:07 24° S
Cosmos 1709 Rocket 3.9 20:41:30 10° N 20:47:39 79° E 20:51:03 28° SSE
GP-B 3.1 20:43:48 10° N 20:48:16 83° W 20:50:36 28° S
SPOT 5 3.2 20:48:36 36° E 20:49:16 38° ENE 20:53:19 10° N
Cosmos 1980 Rocket 2.8 20:46:12 10° NNW 20:51:34 42° NE 20:53:29 32° E
Aureole 3 Rocket 3.1 20:50:15 18° SSW 20:52:41 52° W 20:55:46 10° N
USA 32 4.2 20:50:34 10° N 20:55:43 55° E 20:57:06 43° SE
COSMOS 2406 3.7 20:50:14 10° SW 20:55:51 62° WNW 21:01:33 10° NNE
Cosmos 2298 Rocket 4.4 20:55:30 40° ESE 20:56:03 42° ESE 21:01:03 10° NE
CARTOSAT-1 4.0 20:55:45 41° E 20:56:13 42° ENE 21:00:19 10° N
Meteor 1-23 Rocket 4.2 20:52:15 10° N 20:58:01 89° WSW 21:00:37 34° S
IGS 5A 3.4 21:00:49 58° ESE 21:01:16 63° ENE 21:05:23 10° N
Cosmos 2315 Rocket 3.9 20:58:39 22° S 21:02:57 83° E 21:09:20 10° N
Cosmos 2184 Rocket 4.5 20:57:28 10° N 21:03:19 42° ENE 21:04:50 36° ESE
EXPRESS MD2 3.7 21:00:14 10° WNW 21:03:15 38° WSW 21:03:15 38° WSW
Iridium 2 4.2 21:02:56 34° SW 21:04:17 55° W 21:08:00 10° N
Abrixas rocket 2.9 21:04:33 10° W 21:07:10 49° NW 21:07:10 49° NW
Cosmos 1908 Rocket 4.2 21:05:56 20° SSW 21:08:53 56° WNW 21:13:17 10° N
CZ-2C R/B 4.4 21:05:36 13° SSW 21:09:08 30° W 21:13:23 10° NNW
Cosmos 2369 3.7 21:03:30 10° NNW 21:09:10 77° WSW 21:11:06 43° S
Cosmos 1346 Rocket 2.6 21:11:23 78° NE 21:11:23 78° NE 21:15:05 10° NNE
Uosat 12 SS-18 rocket 4.3 21:08:31 10° NW 21:14:12 81° NE 21:15:07 59° SE
SJ 16-02 1.7 21:12:29 21° SW 21:15:19 63° WNW 21:19:45 10° NNE
Cosmos 1536 4.0 21:14:30 20° SW 21:16:53 41° WNW 21:20:47 10° N
Okean 2 Rocket 3.6 21:19:46 46° ENE 21:19:46 46° ENE 21:23:23 10° NNE
Cosmos 1536 Rocket 4.5 21:19:54 10° N 21:23:30 35° ENE 21:23:30 35° ENE
Cosmos 1048 Rocket 4.2 21:19:21 10° NNW 21:24:22 50° ENE 21:24:52 49° E
Cosmos 1340 3.0 21:27:34 63° NNW 21:27:34 63° NNW 21:30:56 10° N
USA 229 DEB 3.8 21:23:15 10° NW 21:30:31 88° NE 21:32:59 47° SE
Landsat 7 4.1 21:29:38 50° SSW 21:30:32 61° W 21:35:16 10° NNW
USA 229 3.8 21:23:21 10° NW 21:30:37 88° NE 21:33:05 47° SE
Thor Agena Rocket 3.4 21:25:34 10° NNE 21:30:47 79° ESE 21:31:35 64° S
Sich 1 Rocket 3.8 21:30:07 57° SW 21:30:50 69° W 21:35:20 10° N
Resurs 01 Rocket 4.3 21:29:06 10° WSW 21:31:21 14° W 21:33:37 10° WNW
Cosmos 1025 Rocket 4.1 21:27:38 10° N 21:30:54 33° NE 21:30:54 33° NE
NOSS 3-1 (A) 4.2 21:26:30 10° NW 21:33:53 65° NE 21:37:05 39° ESE
ERS-1 Rocket 3.5 21:38:39 45° SW 21:39:42 53° W 21:44:37 10° NNW
Cosmos 2322 Rocket 3.3 21:35:59 10° N 21:40:59 31° NE 21:41:57 30° ENE
Cosmos 1867 4.1 21:35:47 10° NNW 21:41:06 48° NE 21:41:52 45° ENE
EO 1 Del DPAF 4.0 21:37:50 10° N 21:41:30 47° WNW 21:41:30 47° WNW
Cosmos 2360 4.2 21:38:36 10° NNW 21:44:17 71° WSW 21:45:05 62° SSW
BREEZE-M DEB (TANK) 3.3 21:34:20 10° WNW 21:44:26 85° NNE 21:44:35 82° ENE
BREEZE-M DEB (TANK) 4.3 21:40:00 10° WNW 21:44:31 60° N 21:57:44 10° E
Cosmos 1125 Rocket 4.1 21:49:00 44° ENE 21:49:00 44° ENE 21:52:55 10° NNE
CZ-4C R/B 3.9 21:52:48 20° ENE 21:52:48 20° ENE 21:54:55 10° NE
Cosmos 1610 Rocket 4.4 21:45:14 10° N 21:51:22 66° E 21:51:59 62° ESE
FALCON 9 R/B 4.1 21:31:35 10° WSW 21:51:28 39° S 21:52:07 39° S
Cosmos 1743 3.8 21:52:42 42° NNW 21:52:42 42° NNW 21:55:25 10° N
Okean 2 4.2 21:50:56 10° NNW 21:54:19 49° WNW 21:54:19 49° WNW
Cosmos 1833 Rocket 3.6 21:53:22 10° SW 21:58:46 46° NW 22:04:12 10° NNE
Terra 2.1 22:01:09 60° W 22:01:09 60° W 22:05:44 10° NNW
Cosmos 2082 Rocket 2.6 21:58:17 29° SW 22:01:05 59° WNW 22:06:43 10° NNE
Cosmos 494 Rocket 4.3 21:56:26 10° NNW 22:01:10 54° NE 22:01:10 54° NE
Cosmos 2151 Rocket 4.2 22:03:48 54° N 22:03:48 54° N 22:07:17 10° N
Cosmos 2327 Rocket 4.4 22:01:34 10° N 22:08:01 86° W 22:08:48 71° S
Meteor 2-9 Rocket 4.2 22:09:05 76° E 22:09:05 76° E 22:14:51 10° NNE
MOS 1 Rocket 4.0 22:04:43 10° N 22:10:03 62° WNW 22:10:54 54° WSW
Cosmos 1697 Rocket 4.0 22:07:06 10° NW 22:11:54 29° WSW 22:12:42 28° WSW
SL-16 R/B 2.4 22:07:17 10° NNW 22:12:54 57° ENE 22:12:54 57° ENE
Lacrosse 4 Rocket 4.0 22:15:05 10° N 22:17:06 13° NE 22:17:26 13° NE
Cosmos 962 Rocket 4.5 22:14:41 10° N 22:20:48 65° ENE 22:20:48 65° ENE
Meteor 2-15 Rocket 4.3 22:22:41 82° SW 22:22:56 85° W 22:29:06 10° N
NOSS 3-1 (C) 4.3 22:16:11 10° NW 22:23:38 59° WSW 22:25:03 52° SSW
BREEZE M DEB (TANK) 3.3 22:23:44 57° NW 22:24:16 63° N 22:34:01 10° E
IRAS Rocket 4.2 22:26:11 83° NNW 22:26:11 83° NNW 22:31:36 10° NNW
Cosmos 2154 Rocket 3.9 22:22:20 10° NNW 22:28:37 75° W 22:28:54 73° WSW
Cosmos 2360 Rocket 3.1 22:25:08 10° NNW 22:30:20 37° NE 22:30:31 37° ENE
Meteor 1-21 4.4 22:24:49 10° NNW 22:30:15 62° W 22:30:15 62° W
Nadezhda 1 Rocket 4.0 22:30:24 66° WSW 22:30:58 70° W 22:37:06 10° N
Helios 1A 4.4 22:35:02 35° N 22:35:02 35° N 22:37:33 10° N
Cosmos 1980 Rocket 3.3 22:30:27 10° NW 22:35:15 33° W 22:35:15 33° W
Cosmos 2219 Rocket 4.2 22:32:15 10° N 22:35:59 18° NE 22:37:52 15° ENE
Spot 4 4.5 22:37:33 53° NNW 22:37:33 53° NNW 22:41:14 10° NNW
Meteor 1-12 Rocket 4.3 22:36:35 79° WNW 22:36:35 79° WNW 22:42:21 10° N
Mayak 0.4 22:40:04 10° N 22:42:20 31° N 22:42:20 31° N
Cosmos 2341 Rocket 4.3 23:05:04 10° NNW 23:11:05 59° W 23:11:05 59° W
Cosmos 2366 rocket 4.0 23:06:20 10° N 23:12:06 75° NNE 23:12:06 75° NNE
ALOS 2 4.3 23:24:30 31° NNW 23:24:30 31° NNW 23:26:51 10° NNW
Cosmos 2322 Rocket 3.2 23:19:51 10° NW 23:23:45 38° WNW 23:23:45 38° WNW
Cosmos 2333 Rocket 3.3 23:20:35 10° NNW 23:25:46 35° NE 23:25:58 35° ENE
Aureole 1 Rocket 4.2 23:18:01 10° NNW 23:26:01 74° ENE 23:26:09 74° ENE
USA 267 4.4 23:20:34 10° E 23:26:33 40° NNE 23:32:33 10° NW
COSMOS 2455 3.6 23:30:30 10° NNW 23:36:17 45° NE 23:36:41 44° ENE
CZ-4C R/B 2.9 23:37:57 48° NW 23:38:03 48° NW 23:44:03 10° NNE
Cosmos 2181 Rocket 4.4 23:38:53 53° WNW 23:38:53 53° WNW 23:44:35 10° N
